Location: Home
(40.5300°N, 105.0300°W)
Time: 12:11:52
(UTC-07:00)

STARLINK-2712 - Pass Details

Date: 27 October 2021
Orbit: 546 x 548 km, 53.1° (Epoch: 01 December)

Event Time Altitude Azimuth Distance (km) Brightness Sun altitude
Exits shadow 04:35:47 18° 104° (ESE) 1,359 6.2 -32.6°
Drops below altitude 10° 04:37:41 10° 79° (E) 1,811 7.1 -32.2°
Sets 04:40:19 0° 63° (ENE) 2,709 8.2 -31.7°
